Satellite: RS-30
Catalog number: 32953
Epoch time:      12166.47277770
Element set:     868
Inclination:      082.5018 deg
RA of node:       296.8249 deg
Eccentricity:    0.0017890
Arg of perigee:   316.5738 deg
Mean anomaly:     043.3935 deg
Mean motion:   12.43024433 rev/day
Decay rate:        1.0e-07 rev/day^2
Epoch rev:           18422
Checksum:              308

Satellite: TACSAT-3
Catalog number: 35001
Epoch time:      12121.72616188
Element set:    0001
Inclination:      040.4259 deg
RA of node:       351.8840 deg
Eccentricity:    0.0007146
Arg of perigee:   275.2650 deg
Mean anomaly:     085.0693 deg
Mean motion:   16.45157000 rev/day
Decay rate:  1.5204951e-01 rev/day^2
Epoch rev:           16699
Checksum:              280

Satellite: PHARMSAT
Catalog number: 35002
Epoch time:      12165.91022011
Element set:     934
Inclination:      040.4569 deg
RA of node:       088.3726 deg
Eccentricity:    0.0011416
Arg of perigee:   222.5029 deg
Mean anomaly:     137.4917 deg
Mean motion:   15.84823837 rev/day
Decay rate:    1.60764e-03 rev/day^2
Epoch rev:           17380
Checksum:              284

Satellite: METEOR-M
Catalog number: 35865
Epoch time:      12166.33443269
Element set:     501
Inclination:      098.6548 deg
RA of node:       220.7141 deg
Eccentricity:    0.0003377
Arg of perigee:   066.7401 deg
Mean anomaly:     293.4130 deg
Mean motion:   14.21864089 rev/day
Decay rate:       -7.0e-08 rev/day^2
Epoch rev:           14219
Checksum:              286

Satellite: RS-38
Catalog number: 35869
Epoch time:      12166.28565212
Element set:     507
Inclination:      098.6501 deg
RA of node:       220.6618 deg
Eccentricity:    0.0005512
Arg of perigee:   063.7640 deg
Mean anomaly:     296.4099 deg
Mean motion:   14.22074258 rev/day
Decay rate:        4.2e-07 rev/day^2
Epoch rev:           14220
Checksum:              294

Satellite: JUGNU
Catalog number: 37839
Epoch time:      12165.92014309
Element set:    0167
Inclination:      019.9624 deg
RA of node:       018.0225 deg
Eccentricity:    0.0018755
Arg of perigee:   185.8980 deg
Mean anomaly:     174.1127 deg
Mean motion:   14.12060277 rev/day
Decay rate:       6.20e-06 rev/day^2
Epoch rev:           03478
Checksum:              293

Satellite: SRMSAT
Catalog number: 37841
Epoch time:      12165.89947223
Element set:    0168
Inclination:      019.9723 deg
RA of node:       022.9606 deg
Eccentricity:    0.0011794
Arg of perigee:   157.3933 deg
Mean anomaly:     202.7030 deg
Mean motion:   14.10143625 rev/day
Decay rate:       2.64e-06 rev/day^2
Epoch rev:           03473
Checksum:              285

Satellite: RAX-2
Catalog number: 37853
Epoch time:      12166.55037444
Element set:     203
Inclination:      101.7159 deg
RA of node:       205.5346 deg
Eccentricity:    0.0246781
Arg of perigee:   358.4719 deg
Mean anomaly:     001.5698 deg
Mean motion:   14.80049829 rev/day
Decay rate:      4.951e-05 rev/day^2
Epoch rev:            3400
Checksum:              304

Satellite: AUBIESAT
Catalog number: 37854
Epoch time:      12165.89759026
Element set:    0204
Inclination:      101.7165 deg
RA of node:       204.8229 deg
Eccentricity:    0.0246797
Arg of perigee:   359.8360 deg
Mean anomaly:     000.2719 deg
Mean motion:   14.80423964 rev/day
Decay rate:      5.327e-05 rev/day^2
Epoch rev:           03390
Checksum:              311

Satellite: HRBE
Catalog number: 37855
Epoch time:      12165.97849439
Element set:    0208
Inclination:      101.7194 deg
RA of node:       204.9043 deg
Eccentricity:    0.0248459
Arg of perigee:   359.5765 deg
Mean anomaly:     000.5188 deg
Mean motion:   14.80280225 rev/day
Decay rate:      4.872e-05 rev/day^2
Epoch rev:           03391
Checksum:              322

Satellite: RS-39
Catalog number: 38051
Epoch time:      12166.44458451
Element set:     422
Inclination:      051.6378 deg
RA of node:       172.9045 deg
Eccentricity:    0.0013263
Arg of perigee:   028.8630 deg
Mean anomaly:     106.3043 deg
Mean motion:   15.24305501 rev/day
Decay rate:      9.292e-05 rev/day^2
Epoch rev:            2155
Checksum:              275

Satellite: E-STAR
Catalog number: 38079
Epoch time:      12166.47674800
Element set:     288
Inclination:      069.4946 deg
RA of node:       321.8730 deg
Eccentricity:    0.0745652
Arg of perigee:   251.2562 deg
Mean anomaly:     100.6227 deg
Mean motion:   14.14613241 rev/day
Decay rate:     2.8422e-04 rev/day^2
Epoch rev:            1720
Checksum:              292

Satellite: GOLIAT
Catalog number: 38085
Epoch time:      12165.82964299
Element set:     266
Inclination:      069.4980 deg
RA of node:       323.5968 deg
Eccentricity:    0.0750721
Arg of perigee:   252.3007 deg
Mean anomaly:     099.4894 deg
Mean motion:   14.13613711 rev/day
Decay rate:     2.8370e-04 rev/day^2
Epoch rev:            1710
Checksum:              322

